| time (UTC) | temp F | wind direction | speed knots | gust knots | rain 1hr in | rain 24hr in | rain mn in | humidity % | barometer mb |
| 20260505031603 | 44 | 347 | 1.7 | 9.6 | 0.00 | 0.33 | 0.00 | 87 | 1005.8 |
| 20260505030056 | 44 | 50 | 2.6 | 7.8 | 0.00 | 0.33 | 0.00 | 87 | 1005.5 |
| 20260505024558 | 44 | 49 | 3.5 | 10.4 | 0.00 | 0.34 | 0.33 | 86 | 1005.3 |
| 20260505023051 | 45 | 68 | 3.5 | 11.3 | 0.00 | 0.34 | 0.33 | 85 | 1005.1 |
| 20260505021558 | 45 | 35 | 2.6 | 10.4 | 0.00 | 0.34 | 0.33 | 84 | 1005.1 |
| 20260505020054 | 46 | 56 | 3.5 | 11.3 | 0.00 | 0.34 | 0.33 | 83 | 1004.8 |
| 20260505014607 | 46 | 46 | 3.5 | 9.6 | 0.01 | 0.36 | 0.33 | 82 | 1004.6 |
| 20260505013053 | 47 | 52 | 3.5 | 21.7 | 0.01 | 0.36 | 0.33 | 81 | 1004.6 |
| 20260505011604 | 47 | 131 | 3.5 | 14.8 | 0.01 | 0.36 | 0.33 | 82 | 1004.4 |
| 20260505010053 | 47 | 39 | 2.6 | 10.4 | 0.01 | 0.36 | 0.33 | 81 | 1004.4 |
| 20260505004553 | 47 | 84 | 2.6 | 8.7 | 0.00 | 0.37 | 0.32 | 81 | 1004.3 |
| 20260505003050 | 47 | 251 | 3.5 | 10.4 | 0.00 | 0.37 | 0.32 | 80 | 1004.3 |
| 20260505001554 | 47 | 259 | 4.3 | 8.7 | 0.00 | 0.37 | 0.32 | 80 | 1004.3 |
| 20260505000107 | 46 | 0 | 2.6 | 12.2 | 0.00 | 0.37 | 0.32 | 80 | 1003.8 |
| 20260504234555 | 46 | 49 | 3.5 | 8.7 | 0.00 | 0.39 | 0.32 | 79 | 1003.7 |
| 20260504233107 | 47 | 58 | 3.5 | 9.6 | 0.00 | 0.39 | 0.32 | 76 | 1003.4 |
| 20260504231552 | 47 | 38 | 2.6 | 12.2 | 0.00 | 0.39 | 0.32 | 73 | 1003.5 |
| 20260504230053 | 48 | 83 | 2.6 | 10.4 | 0.00 | 0.39 | 0.32 | 70 | 1003.1 |
| 20260504224604 | 49 | 42 | 2.6 | 9.6 | 0.00 | 0.42 | 0.32 | 69 | 1002.9 |
| 20260504223127 | 49 | 112 | 5.2 | 13.9 | 0.01 | 0.42 | 0.32 | 65 | 1002.8 |
| 20260504221554 | 49 | 49 | 2.6 | 9.6 | 0.01 | 0.42 | 0.32 | 70 | 1002.6 |
| 20260504220053 | 50 | 161 | 2.6 | 8.7 | 0.01 | 0.42 | 0.32 | 67 | 1002.6 |
| 20260504214557 | 50 | 39 | 1.7 | 10.4 | 0.01 | 0.44 | 0.32 | 66 | 1002.4 |
| 20260504213102 | 50 | 221 | 1.7 | 13.0 | 0.00 | 0.43 | 0.31 | 66 | 1002.4 |
| 20260504211555 | 49 | 352 | 2.6 | 12.2 | 0.00 | 0.43 | 0.31 | 67 | 1002.2 |
| 20260504210059 | 49 | 42 | 3.5 | 10.4 | 0.01 | 0.43 | 0.31 | 69 | 1002.1 |
| 20260504204557 | 49 | 360 | 3.5 | 8.7 | 0.01 | 0.47 | 0.31 | 68 | 1001.9 |
| 20260504203107 | 48 | 356 | 2.6 | 9.6 | 0.01 | 0.47 | 0.31 | 72 | 1001.8 |
| 20260504201556 | 47 | 11 | 4.3 | 11.3 | 0.01 | 0.47 | 0.31 | 73 | 1001.7 |
| 20260504194552 | 48 | 104 | 2.6 | 12.2 | 0.01 | 0.50 | 0.30 | 74 | 1001.3 |
| 20260504193055 | 47 | 17 | 4.3 | 16.5 | 0.01 | 0.50 | 0.30 | 74 | 1001.1 |
| 20260504191557 | 47 | 310 | 4.3 | 12.2 | 0.01 | 0.50 | 0.30 | 77 | 1000.8 |
| 20260504190049 | 47 | 16 | 5.2 | 14.8 | 0.01 | 0.50 | 0.30 | 79 | 1000.7 |
| 20260504184557 | 46 | 17 | 6.1 | 17.4 | 0.01 | 0.52 | 0.29 | 81 | 1000.6 |
| 20260504183053 | 46 | 285 | 5.2 | 17.4 | 0.01 | 0.52 | 0.29 | 82 | 1000.3 |
| 20260504181600 | 45 | 316 | 7.0 | 17.4 | 0.01 | 0.52 | 0.29 | 85 | 999.9 |
| 20260504180154 | 45 | 282 | 5.2 | 13.9 | 0.01 | 0.52 | 0.29 | 88 | 999.8 |
| 20260504174601 | 43 | 340 | 5.2 | 14.8 | 0.01 | 0.52 | 0.28 | 91 | 999.8 |
| 20260504173053 | 42 | 25 | 6.1 | 17.4 | 0.01 | 0.52 | 0.28 | 93 | 999.5 |
| 20260504171556 | 41 | 43 | 5.2 | 12.2 | 0.02 | 0.52 | 0.28 | 93 | 999.2 |
| 20260504150103 | 39 | 39 | 4.3 | 10.4 | 0.02 | 0.48 | 0.24 | 98 | 997.1 |
| 20260504090107 | 36 | 295 | 12.2 | 27.8 | 0.03 | 0.33 | 0.09 | 99 | 983.5 |
| 20260504081602 | 36 | 298 | 12.2 | 25.2 | 0.02 | 0.31 | 0.07 | 99 | 981.2 |
| 20260504044603 | 39 | 356 | 3.5 | 8.7 | 0.01 | 0.26 | 0.02 | 97 | 975.5 |
| 20260504043057 | 39 | 325 | 3.5 | 8.7 | 0.01 | 0.25 | 0.01 | 97 | 975.4 |
| 20260504041556 | 39 | 327 | 3.5 | 7.0 | 0.01 | 0.25 | 0.01 | 96 | 975.5 |
| 20260504040107 | 39 | 63 | 0.9 | 3.5 | 0.01 | 0.25 | 0.01 | 95 | 975.7 |
| 20260504034612 | 39 | 91 | 3.5 | 11.3 | 0.01 | 0.25 | 0.01 | 95 | 975.9 |
| 20260504033054 | 40 | 90 | 1.7 | 16.5 | 0.01 | 0.24 | 0.00 | 94 | 976.0 |